Location: Waco, TX
(31.5480°N, 97.1670°W)
Time: 15:31:47
(UTC-05:00)

ISS - Pass Details

Date: 17 October 2018
Orbit: 403 x 408 km, 51.6° (Epoch: 17 October)

Event Time Altitude Azimuth Distance (km) Brightness Sun altitude
Rises 18:51:33 0° 302° (WNW) 2,329 0.8 -0.3°
Reaches altitude 10° 18:53:51 10° 289° (WNW) 1,465 0.2 -0.7°
Maximum altitude 18:56:38 25° 231° (SW) 852 -1.2 -1.3°
Drops below altitude 10° 18:59:24 10° 173° (S) 1,456 -0.9 -1.9°
Sets 19:01:40 0° 160° (SSE) 2,311 -0.1 -2.4°
